Time,TemperatureF,DewpointF,PressureIn,WindDirection,WindDirectionDegrees,WindSpeedMPH,WindSpeedGustMPH,Humidity,HourlyPrecipIn,Conditions,Clouds,dailyrainin,SoftwareType,DateUTC
2013-06-22 00:01:00,80.4,72.5,30.11,ESE,123,0.0,2.0,77,0.00,,,0.00,meteohub,2013-06-22 04:01:00,
2013-06-22 00:06:00,80.4,72.9,30.10,ESE,109,0.0,2.0,78,0.00,,,0.00,meteohub,2013-06-22 04:06:00,
2013-06-22 00:11:00,80.2,72.7,30.10,SE,126,0.0,2.0,78,0.00,,,0.00,meteohub,2013-06-22 04:11:00,
2013-06-22 00:16:00,80.2,72.7,30.10,East,97,0.0,2.0,78,0.00,,,0.00,meteohub,2013-06-22 04:16:00,
2013-06-22 00:21:00,80.2,73.0,30.10,SE,134,0.0,2.0,79,0.00,,,0.00,meteohub,2013-06-22 04:21:00,
2013-06-22 00:26:00,80.1,73.0,30.09,South,180,0.0,3.0,79,0.00,,,0.00,meteohub,2013-06-22 04:26:00,
2013-06-22 00:31:00,80.1,73.0,30.09,ESE,117,0.0,3.0,79,0.00,,,0.00,meteohub,2013-06-22 04:31:00,
2013-06-22 00:36:00,80.1,73.0,30.09,ESE,119,0.0,3.0,79,0.00,,,0.00,meteohub,2013-06-22 04:36:00,
2013-06-22 00:41:00,80.1,73.4,30.09,East,92,0.0,3.0,80,0.00,,,0.00,meteohub,2013-06-22 04:41:00,
2013-06-22 00:46:00,80.1,73.4,30.09,ESE,115,0.0,3.0,80,0.00,,,0.00,meteohub,2013-06-22 04:46:00,
2013-06-22 00:51:00,80.1,73.4,30.09,SE,138,0.0,3.0,80,0.00,,,0.00,meteohub,2013-06-22 04:51:00,
2013-06-22 00:56:00,80.1,73.4,30.09,East,97,0.0,2.0,80,0.00,,,0.00,meteohub,2013-06-22 04:56:00,
2013-06-22 01:01:00,80.2,73.9,30.09,SE,140,0.0,5.0,81,0.00,,,0.00,meteohub,2013-06-22 05:01:00,
2013-06-22 01:06:00,80.2,73.9,30.09,East,101,0.0,5.0,81,0.00,,,0.00,meteohub,2013-06-22 05:06:00,
2013-06-22 01:11:00,80.2,73.6,30.08,ESE,108,0.0,5.0,80,0.00,,,0.00,meteohub,2013-06-22 05:11:00,
2013-06-22 01:16:00,80.2,73.6,30.08,SE,135,0.0,3.0,80,0.00,,,0.00,meteohub,2013-06-22 05:16:00,
2013-06-22 01:21:00,80.2,73.6,30.08,ESE,108,0.0,3.0,80,0.00,,,0.00,meteohub,2013-06-22 05:21:00,
2013-06-22 01:26:00,80.2,73.9,30.08,SE,139,0.0,4.0,81,0.00,,,0.00,meteohub,2013-06-22 05:26:00,
2013-06-22 01:31:00,80.2,73.6,30.08,ESE,123,2.0,4.0,80,0.00,,,0.00,meteohub,2013-06-22 05:31:00,
2013-06-22 01:36:00,80.2,73.6,30.07,East,101,0.0,4.0,80,0.00,,,0.00,meteohub,2013-06-22 05:36:00,
2013-06-22 01:41:00,80.2,73.9,30.07,East,90,0.0,4.0,81,0.00,,,0.00,meteohub,2013-06-22 05:41:00,
2013-06-22 01:46:00,80.1,73.8,30.07,SSE,160,0.0,3.0,81,0.00,,,0.00,meteohub,2013-06-22 05:46:00,
2013-06-22 01:51:00,80.1,73.8,30.06,SSE,156,0.0,3.0,81,0.00,,,0.00,meteohub,2013-06-22 05:51:00,
2013-06-22 01:56:00,80.1,73.4,30.06,East,82,0.0,4.0,80,0.00,,,0.00,meteohub,2013-06-22 05:56:00,
2013-06-22 02:01:00,80.1,73.4,30.06,East,96,0.0,4.0,80,0.00,,,0.00,meteohub,2013-06-22 06:01:00,
2013-06-22 02:06:00,80.1,73.8,30.06,East,94,0.0,4.0,81,0.00,,,0.00,meteohub,2013-06-22 06:06:00,
2013-06-22 02:11:00,79.9,73.6,30.06,SE,137,0.0,4.0,81,0.00,,,0.00,meteohub,2013-06-22 06:11:00,
2013-06-22 02:16:00,79.9,73.6,30.06,ESE,119,0.0,4.0,81,0.00,,,0.00,meteohub,2013-06-22 06:16:00,
2013-06-22 02:21:00,79.9,73.6,30.05,ESE,115,0.0,4.0,81,0.00,,,0.00,meteohub,2013-06-22 06:21:00,
2013-06-22 02:26:00,79.9,73.6,30.05,SE,124,0.0,5.0,81,0.00,,,0.00,meteohub,2013-06-22 06:26:00,
2013-06-22 02:31:00,79.9,73.6,30.05,ESE,109,0.0,5.0,81,0.00,,,0.00,meteohub,2013-06-22 06:31:00,
2013-06-22 02:36:00,79.9,73.9,30.05,SE,135,0.0,5.0,82,0.00,,,0.00,meteohub,2013-06-22 06:36:00,
2013-06-22 02:41:00,79.7,73.4,30.05,SE,146,0.0,3.0,81,0.00,,,0.00,meteohub,2013-06-22 06:41:00,
2013-06-22 02:46:00,79.7,73.4,30.05,ESE,121,0.0,3.0,81,0.00,,,0.00,meteohub,2013-06-22 06:46:00,
2013-06-22 02:51:00,79.5,73.2,30.05,East,94,0.0,3.0,81,0.00,,,0.00,meteohub,2013-06-22 06:51:00,
2013-06-22 02:56:00,79.5,73.2,30.05,ENE,75,0.0,3.0,81,0.00,,,0.00,meteohub,2013-06-22 06:56:00,
2013-06-22 03:01:00,79.7,73.8,30.05,SE,138,0.0,2.0,82,0.00,,,0.00,meteohub,2013-06-22 07:01:00,
2013-06-22 03:06:00,79.9,73.9,30.05,ESE,105,0.0,2.0,82,0.00,,,0.00,meteohub,2013-06-22 07:06:00,
2013-06-22 03:11:00,79.9,73.9,30.04,East,98,0.0,2.0,82,0.00,,,0.00,meteohub,2013-06-22 07:11:00,
2013-06-22 03:16:00,79.9,73.9,30.05,East,88,0.0,2.0,82,0.00,,,0.00,meteohub,2013-06-22 07:16:00,
2013-06-22 03:21:00,79.7,73.8,30.05,East,92,0.0,3.0,82,0.00,,,0.00,meteohub,2013-06-22 07:21:00,
2013-06-22 03:26:00,79.7,73.8,30.04,NE,55,0.0,3.0,82,0.00,,,0.00,meteohub,2013-06-22 07:26:00,
2013-06-22 03:31:00,79.7,73.8,30.04,ESE,121,0.0,3.0,82,0.00,,,0.00,meteohub,2013-06-22 07:31:00,
2013-06-22 03:36:00,79.7,73.8,30.04,East,95,0.0,1.0,82,0.00,,,0.00,meteohub,2013-06-22 07:36:00,
2013-06-22 03:41:00,79.7,73.8,30.04,NE,46,0.0,1.0,82,0.00,,,0.00,meteohub,2013-06-22 07:41:00,
2013-06-22 03:46:00,79.7,73.4,30.04,East,94,0.0,3.0,81,0.00,,,0.00,meteohub,2013-06-22 07:46:00,
2013-06-22 03:51:00,79.7,73.8,30.04,NE,40,0.0,3.0,82,0.00,,,0.00,meteohub,2013-06-22 07:51:00,
2013-06-22 03:56:00,79.7,74.1,30.04,ESE,105,0.0,3.0,83,0.00,,,0.00,meteohub,2013-06-22 07:56:00,
2013-06-22 04:01:00,79.9,74.3,30.04,NNE,24,0.0,3.0,83,0.00,,,0.00,meteohub,2013-06-22 08:01:00,
2013-06-22 04:06:00,79.9,74.3,30.04,ENE,71,0.0,3.0,83,0.00,,,0.00,meteohub,2013-06-22 08:06:00,
2013-06-22 04:11:00,79.7,73.8,30.04,East,85,0.0,3.0,82,0.00,,,0.00,meteohub,2013-06-22 08:11:00,
2013-06-22 04:16:00,79.5,73.6,30.04,SE,140,0.0,2.0,82,0.00,,,0.00,meteohub,2013-06-22 08:16:00,
2013-06-22 04:21:00,79.5,73.6,30.04,NE,40,0.0,2.0,82,0.00,,,0.00,meteohub,2013-06-22 08:21:00,
2013-06-22 04:26:00,79.3,73.4,30.04,East,89,0.0,3.0,82,0.00,,,0.00,meteohub,2013-06-22 08:26:00,
2013-06-22 04:31:00,79.3,73.8,30.04,ESE,108,0.0,3.0,83,0.00,,,0.00,meteohub,2013-06-22 08:31:00,
2013-06-22 04:36:00,79.3,73.8,30.04,NE,48,3.0,3.0,83,0.00,,,0.00,meteohub,2013-06-22 08:36:00,
2013-06-22 04:41:00,79.2,73.6,30.04,NE,55,0.0,3.0,83,0.00,,,0.00,meteohub,2013-06-22 08:41:00,
2013-06-22 04:46:00,79.2,73.9,30.04,ENE,57,0.0,3.0,84,0.00,,,0.00,meteohub,2013-06-22 08:46:00,
2013-06-22 04:51:00,79.2,73.9,30.04,ENE,57,0.0,3.0,84,0.00,,,0.00,meteohub,2013-06-22 08:51:00,
2013-06-22 04:56:00,79.0,73.8,30.04,ENE,57,0.0,0.0,84,0.00,,,0.00,meteohub,2013-06-22 08:56:00,
2013-06-22 05:01:00,79.0,73.8,30.04,ENE,60,0.0,1.0,84,0.00,,,0.00,meteohub,2013-06-22 09:01:00,
2013-06-22 05:06:00,79.0,73.4,30.04,ENE,61,0.0,2.0,83,0.00,,,0.00,meteohub,2013-06-22 09:06:00,
2013-06-22 05:11:00,79.0,73.4,30.04,ESE,107,0.0,2.0,83,0.00,,,0.00,meteohub,2013-06-22 09:11:00,
2013-06-22 05:16:00,79.0,73.8,30.04,SE,141,0.0,2.0,84,0.00,,,0.00,meteohub,2013-06-22 09:16:00,
2013-06-22 05:21:00,79.0,73.8,30.04,SE,130,0.0,2.0,84,0.00,,,0.00,meteohub,2013-06-22 09:21:00,
2013-06-22 05:26:00,79.0,73.8,30.04,SE,146,0.0,2.0,84,0.00,,,0.00,meteohub,2013-06-22 09:26:00,
2013-06-22 05:31:00,79.0,73.8,30.04,ESE,112,0.0,2.0,84,0.00,,,0.00,meteohub,2013-06-22 09:31:00,
2013-06-22 05:36:00,78.8,73.6,30.04,SE,134,0.0,2.0,84,0.00,,,0.00,meteohub,2013-06-22 09:36:00,
2013-06-22 05:41:00,78.6,73.4,30.04,SSE,150,0.0,1.0,84,0.00,,,0.00,meteohub,2013-06-22 09:41:00,
2013-06-22 05:46:00,78.6,73.8,30.04,SE,128,0.0,1.0,85,0.00,,,0.00,meteohub,2013-06-22 09:46:00,
2013-06-22 05:51:00,78.4,73.6,30.04,SE,128,0.0,1.0,85,0.00,,,0.00,meteohub,2013-06-22 09:51:00,
2013-06-22 05:56:00,78.4,73.6,30.04,SE,126,0.0,1.0,85,0.00,,,0.00,meteohub,2013-06-22 09:56:00,
2013-06-22 06:01:00,78.3,73.4,30.05,SE,126,0.0,1.0,85,0.00,,,0.00,meteohub,2013-06-22 10:01:00,
2013-06-22 06:06:00,78.3,73.4,30.05,SE,126,0.0,0.0,85,0.00,,,0.00,meteohub,2013-06-22 10:06:00,
2013-06-22 06:11:00,78.3,73.4,30.05,NE,42,0.0,2.0,85,0.00,,,0.00,meteohub,2013-06-22 10:11:00,
2013-06-22 06:16:00,78.3,73.0,30.05,NE,42,0.0,2.0,84,0.00,,,0.00,meteohub,2013-06-22 10:16:00,
2013-06-22 06:21:00,78.3,73.0,30.05,NE,42,0.0,2.0,84,0.00,,,0.00,meteohub,2013-06-22 10:21:00,
2013-06-22 06:26:00,78.3,73.4,30.05,NE,42,0.0,0.0,85,0.00,,,0.00,meteohub,2013-06-22 10:26:00,
2013-06-22 06:31:00,78.3,73.4,30.05,NE,42,0.0,0.0,85,0.00,,,0.00,meteohub,2013-06-22 10:31:00,
2013-06-22 06:36:00,78.3,73.8,30.05,NE,42,0.0,0.0,86,0.00,,,0.00,meteohub,2013-06-22 10:36:00,
2013-06-22 06:41:00,78.3,73.8,30.05,NE,35,0.0,2.0,86,0.00,,,0.00,meteohub,2013-06-22 10:41:00,
2013-06-22 06:46:00,78.3,73.4,30.06,ENE,71,0.0,2.0,85,0.00,,,0.00,meteohub,2013-06-22 10:46:00,
2013-06-22 06:51:00,78.4,73.6,30.06,ENE,71,0.0,2.0,85,0.00,,,0.00,meteohub,2013-06-22 10:51:00,
2013-06-22 06:56:00,78.4,73.2,30.06,ENE,71,0.0,1.0,84,0.00,,,0.00,meteohub,2013-06-22 10:56:00,
2013-06-22 07:01:00,78.4,72.9,30.06,SE,128,0.0,2.0,83,0.00,,,0.00,meteohub,2013-06-22 11:01:00,
2013-06-22 07:06:00,78.6,73.0,30.06,ESE,105,0.0,2.0,83,0.00,,,0.00,meteohub,2013-06-22 11:06:00,
2013-06-22 07:11:00,78.6,73.0,30.06,ESE,105,0.0,2.0,83,0.00,,,0.00,meteohub,2013-06-22 11:11:00,
2013-06-22 07:16:00,78.6,73.0,30.06,ESE,115,0.0,1.0,83,0.00,,,0.00,meteohub,2013-06-22 11:16:00,
2013-06-22 07:21:00,78.6,73.0,30.07,ESE,114,0.0,1.0,83,0.00,,,0.00,meteohub,2013-06-22 11:21:00,
2013-06-22 07:26:00,79.0,73.8,30.07,ESE,115,0.0,1.0,84,0.00,,,0.00,meteohub,2013-06-22 11:26:00,
2013-06-22 07:31:00,79.2,73.9,30.07,ESE,115,0.0,2.0,84,0.00,,,0.00,meteohub,2013-06-22 11:31:00,
2013-06-22 07:36:00,79.3,73.8,30.07,ESE,122,0.0,2.0,83,0.00,,,0.00,meteohub,2013-06-22 11:36:00,
2013-06-22 07:41:00,79.9,74.3,30.07,ESE,116,0.0,2.0,83,0.00,,,0.00,meteohub,2013-06-22 11:41:00,
2013-06-22 07:46:00,80.2,73.9,30.07,East,88,0.0,3.0,81,0.00,,,0.00,meteohub,2013-06-22 11:46:00,
2013-06-22 07:51:00,80.6,73.9,30.07,SE,141,0.0,3.0,80,0.00,,,0.00,meteohub,2013-06-22 11:51:00,
2013-06-22 07:56:00,80.8,74.5,30.07,ENE,77,0.0,3.0,81,0.00,,,0.00,meteohub,2013-06-22 11:56:00,
2013-06-22 08:01:00,80.8,74.5,30.07,ESE,109,0.0,3.0,81,0.00,,,0.00,meteohub,2013-06-22 12:01:00,
2013-06-22 08:06:00,80.8,74.5,30.07,NE,38,0.0,3.0,81,0.00,,,0.00,meteohub,2013-06-22 12:06:00,
2013-06-22 08:11:00,81.1,74.3,30.07,SSE,147,3.0,3.0,80,0.00,,,0.00,meteohub,2013-06-22 12:11:00,
2013-06-22 08:16:00,81.9,74.3,30.07,ESE,103,0.0,4.0,78,0.00,,,0.00,meteohub,2013-06-22 12:16:00,
2013-06-22 08:21:00,82.2,74.3,30.08,SSE,147,3.0,4.0,77,0.00,,,0.00,meteohub,2013-06-22 12:21:00,
2013-06-22 08:26:00,82.8,73.9,30.08,East,94,1.0,5.0,75,0.00,,,0.00,meteohub,2013-06-22 12:26:00,
2013-06-22 08:31:00,83.3,74.1,30.08,SE,146,0.0,5.0,74,0.00,,,0.00,meteohub,2013-06-22 12:31:00,
2013-06-22 08:36:00,83.8,74.7,30.08,NE,51,0.0,5.0,74,0.00,,,0.00,meteohub,2013-06-22 12:36:00,
2013-06-22 08:41:00,84.2,74.1,30.08,SSE,155,0.0,3.0,72,0.00,,,0.00,meteohub,2013-06-22 12:41:00,
2013-06-22 08:46:00,84.6,74.1,30.09,East,92,0.0,3.0,71,0.00,,,0.00,meteohub,2013-06-22 12:46:00,
2013-06-22 08:51:00,84.6,74.1,30.09,East,89,1.0,6.0,71,0.00,,,0.00,meteohub,2013-06-22 12:51:00,
2013-06-22 08:56:00,84.7,73.9,30.09,ESE,105,0.0,6.0,70,0.00,,,0.00,meteohub,2013-06-22 12:56:00,
2013-06-22 09:01:00,84.9,74.5,30.09,ESE,111,0.0,6.0,71,0.00,,,0.00,meteohub,2013-06-22 13:01:00,
2013-06-22 09:06:00,84.9,74.5,30.09,South,169,0.0,5.0,71,0.00,,,0.00,meteohub,2013-06-22 13:06:00,
2013-06-22 09:11:00,85.3,74.8,30.09,ESE,116,1.0,5.0,71,0.00,,,0.00,meteohub,2013-06-22 13:11:00,
2013-06-22 09:16:00,85.3,74.8,30.09,SE,135,0.0,5.0,71,0.00,,,0.00,meteohub,2013-06-22 13:16:00,
2013-06-22 09:21:00,85.6,73.9,30.09,SSE,148,2.0,5.0,68,0.00,,,0.00,meteohub,2013-06-22 13:21:00,
2013-06-22 09:26:00,85.6,73.4,30.09,SSE,153,0.0,5.0,67,0.00,,,0.00,meteohub,2013-06-22 13:26:00,
2013-06-22 09:31:00,85.6,74.3,30.09,SE,146,3.0,4.0,69,0.00,,,0.00,meteohub,2013-06-22 13:31:00,
2013-06-22 09:36:00,86.2,73.9,30.09,ESE,115,4.0,4.0,67,0.00,,,0.00,meteohub,2013-06-22 13:36:00,
2013-06-22 09:41:00,85.8,73.9,30.09,SSE,158,1.0,5.0,68,0.00,,,0.00,meteohub,2013-06-22 13:41:00,
2013-06-22 09:46:00,85.6,73.9,30.09,ESE,117,1.0,7.0,68,0.00,,,0.00,meteohub,2013-06-22 13:46:00,
2013-06-22 09:51:00,86.0,74.7,30.10,SSE,155,0.0,7.0,69,0.00,,,0.00,meteohub,2013-06-22 13:51:00,
2013-06-22 09:56:00,86.2,73.9,30.10,SSE,152,3.0,7.0,67,0.00,,,0.00,meteohub,2013-06-22 13:56:00,
2013-06-22 10:01:00,86.2,73.9,30.10,ENE,57,1.0,5.0,67,0.00,,,0.00,meteohub,2013-06-22 14:01:00,
2013-06-22 10:06:00,86.5,74.3,30.10,ESE,107,0.0,5.0,67,0.00,,,0.00,meteohub,2013-06-22 14:06:00,
2013-06-22 10:11:00,87.1,73.9,30.10,NE,41,1.0,5.0,65,0.00,,,0.00,meteohub,2013-06-22 14:11:00,
2013-06-22 10:16:00,87.3,74.1,30.10,ESE,117,1.0,4.0,65,0.00,,,0.00,meteohub,2013-06-22 14:16:00,
2013-06-22 10:21:00,87.1,74.3,30.10,SE,144,1.0,7.0,66,0.00,,,0.00,meteohub,2013-06-22 14:21:00,
2013-06-22 10:26:00,87.1,74.8,30.10,NNW,327,0.0,7.0,67,0.00,,,0.00,meteohub,2013-06-22 14:26:00,
2013-06-22 10:31:00,87.3,75.0,30.10,SE,128,2.0,7.0,67,0.00,,,0.00,meteohub,2013-06-22 14:31:00,
2013-06-22 10:36:00,87.4,75.2,30.10,NE,40,1.0,6.0,67,0.00,,,0.00,meteohub,2013-06-22 14:36:00,
2013-06-22 10:41:00,87.6,74.8,30.10,SE,144,3.0,4.0,66,0.00,,,0.00,meteohub,2013-06-22 14:41:00,
2013-06-22 10:46:00,87.6,74.8,30.10,East,96,1.0,4.0,66,0.00,,,0.00,meteohub,2013-06-22 14:46:00,
2013-06-22 10:51:00,87.4,75.2,30.10,ESE,118,0.0,6.0,67,0.00,,,0.00,meteohub,2013-06-22 14:51:00,
2013-06-22 10:56:00,87.6,75.4,30.10,ESE,113,1.0,6.0,67,0.00,,,0.00,meteohub,2013-06-22 14:56:00,
2013-06-22 11:01:00,88.0,75.2,30.10,East,95,1.0,6.0,66,0.00,,,0.00,meteohub,2013-06-22 15:01:00,
2013-06-22 11:07:00,88.3,75.6,30.10,East,89,0.0,5.0,66,0.00,,,0.00,meteohub,2013-06-22 15:07:00,
2013-06-22 11:12:00,88.3,75.6,30.10,SSE,160,1.0,5.0,66,0.00,,,0.00,meteohub,2013-06-22 15:12:00,
2013-06-22 11:17:00,87.6,75.4,30.10,SSE,147,4.0,5.0,67,0.00,,,0.00,meteohub,2013-06-22 15:17:00,
2013-06-22 11:22:00,87.4,75.6,30.10,NNW,345,0.0,6.0,68,0.00,,,0.00,meteohub,2013-06-22 15:22:00,
2013-06-22 11:27:00,87.8,75.4,30.10,NNE,30,0.0,6.0,67,0.00,,,0.00,meteohub,2013-06-22 15:27:00,
2013-06-22 11:32:00,88.2,75.7,30.10,SE,144,0.0,6.0,67,0.00,,,0.00,meteohub,2013-06-22 15:32:00,
2013-06-22 11:37:00,88.2,74.5,30.10,SSW,198,3.0,5.0,64,0.00,,,0.00,meteohub,2013-06-22 15:37:00,
2013-06-22 11:42:00,88.0,74.7,30.10,ESE,122,0.0,5.0,65,0.00,,,0.00,meteohub,2013-06-22 15:42:00,
2013-06-22 11:47:00,87.6,74.8,30.10,SE,146,1.0,5.0,66,0.00,,,0.00,meteohub,2013-06-22 15:47:00,
2013-06-22 11:52:00,88.0,75.2,30.11,WSW,245,2.0,5.0,66,0.00,,,0.00,meteohub,2013-06-22 15:52:00,
2013-06-22 11:57:00,88.0,75.2,30.11,SE,138,2.0,7.0,66,0.00,,,0.00,meteohub,2013-06-22 15:57:00,
2013-06-22 12:02:00,88.2,74.8,30.10,SE,135,0.0,7.0,65,0.00,,,0.00,meteohub,2013-06-22 16:02:00,
2013-06-22 12:07:00,88.5,75.2,30.11,ESE,118,2.0,7.0,65,0.00,,,0.00,meteohub,2013-06-22 16:07:00,
2013-06-22 12:12:00,88.5,74.8,30.11,NE,44,3.0,6.0,64,0.00,,,0.00,meteohub,2013-06-22 16:12:00,
2013-06-22 12:17:00,88.3,75.0,30.11,SSE,167,1.0,6.0,65,0.00,,,0.00,meteohub,2013-06-22 16:17:00,
2013-06-22 12:22:00,88.0,75.2,30.10,East,98,0.0,8.0,66,0.00,,,0.00,meteohub,2013-06-22 16:22:00,
2013-06-22 12:27:00,88.2,74.8,30.10,SSE,147,0.0,8.0,65,0.00,,,0.00,meteohub,2013-06-22 16:27:00,
2013-06-22 12:32:00,88.3,75.6,30.10,ENE,78,0.0,8.0,66,0.00,,,0.00,meteohub,2013-06-22 16:32:00,
2013-06-22 12:37:00,88.5,75.2,30.10,SE,146,1.0,7.0,65,0.00,,,0.00,meteohub,2013-06-22 16:37:00,
2013-06-22 12:42:00,88.9,75.6,30.11,ESE,119,0.0,7.0,65,0.00,,,0.00,meteohub,2013-06-22 16:42:00,
2013-06-22 12:47:00,89.2,75.4,30.11,ENE,65,3.0,7.0,64,0.00,,,0.00,meteohub,2013-06-22 16:47:00,
2013-06-22 12:52:00,88.9,75.6,30.11,SE,138,1.0,6.0,65,0.00,,,0.00,meteohub,2013-06-22 16:52:00,
2013-06-22 12:57:00,89.2,75.4,30.11,ESE,123,3.0,6.0,64,0.00,,,0.00,meteohub,2013-06-22 16:57:00,
2013-06-22 13:02:00,89.4,75.6,30.11,ENE,67,0.0,6.0,64,0.00,,,0.00,meteohub,2013-06-22 17:02:00,
2013-06-22 13:07:00,89.4,75.6,30.11,NE,43,0.0,6.0,64,0.00,,,0.00,meteohub,2013-06-22 17:07:00,
2013-06-22 13:12:00,89.2,75.4,30.11,SE,144,1.0,5.0,64,0.00,,,0.00,meteohub,2013-06-22 17:12:00,
2013-06-22 13:17:00,89.4,75.6,30.11,NNE,16,2.0,6.0,64,0.00,,,0.00,meteohub,2013-06-22 17:17:00,
2013-06-22 13:22:00,89.2,75.9,30.11,North,355,0.0,6.0,65,0.00,,,0.00,meteohub,2013-06-22 17:22:00,
2013-06-22 13:27:00,89.2,75.9,30.10,NE,54,2.0,7.0,65,0.00,,,0.00,meteohub,2013-06-22 17:27:00,
2013-06-22 13:32:00,89.2,75.4,30.10,SE,142,2.0,7.0,64,0.00,,,0.00,meteohub,2013-06-22 17:32:00,
2013-06-22 13:37:00,89.2,75.9,30.10,NNE,33,2.0,7.0,65,0.00,,,0.00,meteohub,2013-06-22 17:37:00,
2013-06-22 13:42:00,89.6,75.4,30.10,SE,140,4.0,5.0,63,0.00,,,0.00,meteohub,2013-06-22 17:42:00,
2013-06-22 13:47:00,89.2,75.4,30.11,SSE,151,1.0,7.0,64,0.00,,,0.00,meteohub,2013-06-22 17:47:00,
2013-06-22 13:52:00,89.2,75.0,30.10,ESE,115,1.0,7.0,63,0.00,,,0.00,meteohub,2013-06-22 17:52:00,
2013-06-22 13:57:00,89.1,75.2,30.10,East,96,2.0,7.0,64,0.00,,,0.00,meteohub,2013-06-22 17:57:00,
2013-06-22 14:02:00,89.2,75.4,30.10,ESE,113,2.0,7.0,64,0.00,,,0.00,meteohub,2013-06-22 18:02:00,
2013-06-22 14:07:00,89.2,75.4,30.10,East,101,0.0,6.0,64,0.00,,,0.00,meteohub,2013-06-22 18:07:00,
2013-06-22 14:12:00,89.8,75.9,30.09,North,0,0.0,6.0,64,0.00,,,0.00,meteohub,2013-06-22 18:12:00,
2013-06-22 14:17:00,90.0,75.2,30.09,SE,134,1.0,6.0,62,0.00,,,0.00,meteohub,2013-06-22 18:17:00,
2013-06-22 14:22:00,89.1,75.2,30.09,SE,135,1.0,7.0,64,0.00,,,0.00,meteohub,2013-06-22 18:22:00,
2013-06-22 14:27:00,88.9,75.2,30.09,ENE,57,3.0,7.0,64,0.00,,,0.00,meteohub,2013-06-22 18:27:00,
2013-06-22 14:32:00,89.1,74.8,30.09,South,186,7.0,7.0,63,0.00,,,0.00,meteohub,2013-06-22 18:32:00,
2013-06-22 14:37:00,89.1,74.8,30.09,SE,141,3.0,7.0,63,0.00,,,0.00,meteohub,2013-06-22 18:37:00,
2013-06-22 14:42:00,89.2,75.0,30.09,East,101,1.0,7.0,63,0.00,,,0.00,meteohub,2013-06-22 18:42:00,
2013-06-22 14:47:00,89.2,75.0,30.09,ENE,65,1.0,7.0,63,0.00,,,0.00,meteohub,2013-06-22 18:47:00,
2013-06-22 14:52:00,89.4,74.7,30.08,SSE,165,3.0,7.0,62,0.00,,,0.00,meteohub,2013-06-22 18:52:00,
2013-06-22 14:57:00,89.1,74.8,30.08,NE,51,3.0,7.0,63,0.00,,,0.00,meteohub,2013-06-22 18:57:00,
2013-06-22 15:02:00,88.9,74.7,30.08,ESE,117,4.0,7.0,63,0.00,,,0.00,meteohub,2013-06-22 19:02:00,
2013-06-22 15:07:00,88.5,74.8,30.08,SE,143,5.0,7.0,64,0.00,,,0.00,meteohub,2013-06-22 19:07:00,
2013-06-22 15:12:00,88.3,74.1,30.08,ENE,77,1.0,9.0,63,0.00,,,0.00,meteohub,2013-06-22 19:12:00,
2013-06-22 15:17:00,88.9,74.1,30.08,NE,55,5.0,9.0,62,0.00,,,0.00,meteohub,2013-06-22 19:17:00,
2013-06-22 15:22:00,89.1,74.3,30.07,NE,43,2.0,9.0,62,0.00,,,0.00,meteohub,2013-06-22 19:22:00,
2013-06-22 15:27:00,88.9,75.2,30.07,NE,56,0.0,7.0,64,0.00,,,0.00,meteohub,2013-06-22 19:27:00,
2013-06-22 15:32:00,89.1,74.3,30.07,NE,52,0.0,7.0,62,0.00,,,0.00,meteohub,2013-06-22 19:32:00,
2013-06-22 15:37:00,89.2,74.5,30.07,ESE,105,3.0,7.0,62,0.00,,,0.00,meteohub,2013-06-22 19:37:00,
2013-06-22 15:42:00,89.4,75.6,30.07,NNE,16,1.0,5.0,64,0.00,,,0.00,meteohub,2013-06-22 19:42:00,
2013-06-22 15:47:00,89.2,75.0,30.07,ENE,63,4.0,5.0,63,0.00,,,0.00,meteohub,2013-06-22 19:47:00,
2013-06-22 15:52:00,88.9,74.7,30.07,NE,34,1.0,5.0,63,0.00,,,0.00,meteohub,2013-06-22 19:52:00,
2013-06-22 15:57:00,88.5,74.8,30.08,NNE,14,2.0,7.0,64,0.00,,,0.00,meteohub,2013-06-22 19:57:00,
2013-06-22 16:02:00,88.3,74.7,30.07,NNE,23,0.0,7.0,64,0.00,,,0.00,meteohub,2013-06-22 20:02:00,
2013-06-22 16:07:00,88.7,75.0,30.07,ENE,62,0.0,7.0,64,0.00,,,0.00,meteohub,2013-06-22 20:07:00,
2013-06-22 16:12:00,88.7,75.0,30.07,NNW,344,3.0,8.0,64,0.00,,,0.00,meteohub,2013-06-22 20:12:00,
2013-06-22 16:17:00,88.2,74.8,30.07,SE,135,2.0,8.0,65,0.00,,,0.00,meteohub,2013-06-22 20:17:00,
2013-06-22 16:22:00,88.0,74.7,30.06,NNE,23,2.0,8.0,65,0.00,,,0.00,meteohub,2013-06-22 20:22:00,
2013-06-22 16:27:00,88.0,75.2,30.06,ENE,71,0.0,8.0,66,0.00,,,0.00,meteohub,2013-06-22 20:27:00,
2013-06-22 16:32:00,88.0,75.2,30.06,NNE,33,0.0,8.0,66,0.00,,,0.00,meteohub,2013-06-22 20:32:00,
2013-06-22 16:37:00,87.8,75.0,30.06,East,79,5.0,7.0,66,0.00,,,0.00,meteohub,2013-06-22 20:37:00,
2013-06-22 16:42:00,87.4,74.7,30.06,ESE,120,2.0,8.0,66,0.00,,,0.00,meteohub,2013-06-22 20:42:00,
2013-06-22 16:47:00,87.4,74.3,30.07,ESE,112,0.0,8.0,65,0.00,,,0.00,meteohub,2013-06-22 20:47:00,
2013-06-22 16:52:00,87.4,73.8,30.06,ESE,116,2.0,8.0,64,0.00,,,0.00,meteohub,2013-06-22 20:52:00,
2013-06-22 16:57:00,87.4,73.8,30.06,East,88,2.0,8.0,64,0.00,,,0.00,meteohub,2013-06-22 20:57:00,
2013-06-22 17:02:00,87.4,73.2,30.06,ESE,115,3.0,7.0,63,0.00,,,0.00,meteohub,2013-06-22 21:02:00,
2013-06-22 17:07:00,87.6,73.9,30.06,SE,146,1.0,7.0,64,0.00,,,0.00,meteohub,2013-06-22 21:07:00,
2013-06-22 17:12:00,88.0,73.8,30.06,NNE,27,2.0,7.0,63,0.00,,,0.00,meteohub,2013-06-22 21:12:00,
2013-06-22 17:17:00,87.8,73.6,30.06,ENE,76,3.0,8.0,63,0.00,,,0.00,meteohub,2013-06-22 21:17:00,
2013-06-22 17:22:00,87.3,73.6,30.06,ESE,110,0.0,8.0,64,0.00,,,0.00,meteohub,2013-06-22 21:22:00,
2013-06-22 17:27:00,86.7,73.0,30.06,ENE,65,0.0,8.0,64,0.00,,,0.00,meteohub,2013-06-22 21:27:00,
2013-06-22 17:32:00,86.7,73.6,30.06,ESE,111,1.0,8.0,65,0.00,,,0.00,meteohub,2013-06-22 21:32:00,
2013-06-22 17:37:00,87.1,74.3,30.06,SE,125,2.0,8.0,66,0.00,,,0.00,meteohub,2013-06-22 21:37:00,
2013-06-22 17:42:00,87.1,73.9,30.06,North,350,3.0,8.0,65,0.00,,,0.00,meteohub,2013-06-22 21:42:00,
2013-06-22 17:47:00,86.7,73.6,30.06,SSW,203,0.0,9.0,65,0.00,,,0.00,meteohub,2013-06-22 21:47:00,
2013-06-22 17:52:00,86.7,74.5,30.05,ESE,118,0.0,9.0,67,0.00,,,0.00,meteohub,2013-06-22 21:52:00,
2013-06-22 17:57:00,86.5,73.8,30.06,ENE,60,3.0,9.0,66,0.00,,,0.00,meteohub,2013-06-22 21:57:00,
2013-06-22 18:02:00,86.2,73.4,30.05,NNE,26,2.0,9.0,66,0.00,,,0.00,meteohub,2013-06-22 22:02:00,
2013-06-22 18:07:00,86.4,74.1,30.05,East,96,0.0,9.0,67,0.00,,,0.00,meteohub,2013-06-22 22:07:00,
2013-06-22 18:12:00,86.4,73.6,30.05,ENE,57,0.0,8.0,66,0.00,,,0.00,meteohub,2013-06-22 22:12:00,
2013-06-22 18:17:00,86.4,74.1,30.05,NNW,346,1.0,7.0,67,0.00,,,0.00,meteohub,2013-06-22 22:17:00,
2013-06-22 18:22:00,86.2,73.9,30.05,ESE,113,0.0,7.0,67,0.00,,,0.00,meteohub,2013-06-22 22:22:00,
2013-06-22 18:27:00,85.8,73.6,30.05,NE,40,2.0,7.0,67,0.00,,,0.00,meteohub,2013-06-22 22:27:00,
2013-06-22 18:32:00,85.6,73.9,30.05,ESE,108,2.0,7.0,68,0.00,,,0.00,meteohub,2013-06-22 22:32:00,
2013-06-22 18:37:00,85.6,73.9,30.05,SE,131,1.0,7.0,68,0.00,,,0.00,meteohub,2013-06-22 22:37:00,
2013-06-22 18:42:00,85.6,73.9,30.05,NE,42,2.0,7.0,68,0.00,,,0.00,meteohub,2013-06-22 22:42:00,
2013-06-22 18:47:00,85.5,74.1,30.05,NNE,18,0.0,6.0,69,0.00,,,0.00,meteohub,2013-06-22 22:47:00,
2013-06-22 18:52:00,85.6,74.3,30.05,SE,126,0.0,6.0,69,0.00,,,0.00,meteohub,2013-06-22 22:52:00,
2013-06-22 18:57:00,85.5,73.8,30.05,NNE,26,4.0,6.0,68,0.00,,,0.00,meteohub,2013-06-22 22:57:00,
2013-06-22 19:02:00,85.1,74.1,30.05,ENE,67,1.0,6.0,70,0.00,,,0.00,meteohub,2013-06-22 23:02:00,
2013-06-22 19:07:00,84.7,73.9,30.05,NE,37,0.0,6.0,70,0.00,,,0.00,meteohub,2013-06-22 23:07:00,
2013-06-22 19:12:00,84.4,73.6,30.05,East,81,5.0,5.0,70,0.00,,,0.00,meteohub,2013-06-22 23:12:00,
2013-06-22 19:17:00,84.0,73.2,30.05,NE,46,0.0,6.0,70,0.00,,,0.00,meteohub,2013-06-22 23:17:00,
2013-06-22 19:22:00,83.8,73.4,30.05,NE,42,0.0,6.0,71,0.00,,,0.00,meteohub,2013-06-22 23:22:00,
2013-06-22 19:27:00,83.7,73.6,30.05,NE,56,0.0,6.0,72,0.00,,,0.00,meteohub,2013-06-22 23:27:00,
2013-06-22 19:32:00,83.7,73.6,30.05,East,84,0.0,7.0,72,0.00,,,0.00,meteohub,2013-06-22 23:32:00,
2013-06-22 19:37:00,83.5,73.6,30.05,ENE,65,0.0,7.0,72,0.00,,,0.00,meteohub,2013-06-22 23:37:00,
2013-06-22 19:42:00,83.5,73.9,30.05,ENE,71,1.0,7.0,73,0.00,,,0.00,meteohub,2013-06-22 23:42:00,
2013-06-22 19:47:00,83.3,73.8,30.05,SE,139,0.0,4.0,73,0.00,,,0.00,meteohub,2013-06-22 23:47:00,
2013-06-22 19:52:00,83.1,73.9,30.05,ESE,111,0.0,4.0,74,0.00,,,0.00,meteohub,2013-06-22 23:52:00,
2013-06-22 19:57:00,83.1,73.9,30.05,East,96,0.0,5.0,74,0.00,,,0.00,meteohub,2013-06-22 23:57:00,
2013-06-22 20:02:00,82.9,74.1,30.05,East,91,3.0,5.0,75,0.00,,,0.00,meteohub,2013-06-23 00:02:00,
2013-06-22 20:07:00,82.9,75.0,30.05,East,80,0.0,5.0,77,0.00,,,0.00,meteohub,2013-06-23 00:07:00,
2013-06-22 20:12:00,82.8,74.5,30.06,East,101,0.0,5.0,76,0.00,,,0.00,meteohub,2013-06-23 00:12:00,
2013-06-22 20:17:00,82.8,74.8,30.06,SE,146,0.0,5.0,77,0.00,,,0.00,meteohub,2013-06-23 00:17:00,
2013-06-22 20:22:00,82.6,74.7,30.06,ENE,76,0.0,5.0,77,0.00,,,0.00,meteohub,2013-06-23 00:22:00,
2013-06-22 20:27:00,82.4,74.8,30.06,ESE,109,1.0,9.0,78,0.00,,,0.00,meteohub,2013-06-23 00:27:00,
2013-06-22 20:32:00,82.2,74.7,30.06,SE,130,0.0,9.0,78,0.00,,,0.00,meteohub,2013-06-23 00:32:00,
2013-06-22 20:37:00,82.0,74.8,30.06,ENE,75,1.0,9.0,79,0.00,,,0.00,meteohub,2013-06-23 00:37:00,
2013-06-22 20:42:00,81.9,74.7,30.06,South,170,0.0,4.0,79,0.00,,,0.00,meteohub,2013-06-23 00:42:00,
2013-06-22 20:47:00,81.9,74.7,30.06,East,96,0.0,4.0,79,0.00,,,0.00,meteohub,2013-06-23 00:47:00,
2013-06-22 20:52:00,81.7,74.5,30.06,East,89,0.0,4.0,79,0.00,,,0.00,meteohub,2013-06-23 00:52:00,
2013-06-22 20:57:00,81.7,74.5,30.06,SE,137,0.0,2.0,79,0.00,,,0.00,meteohub,2013-06-23 00:57:00,
2013-06-22 21:02:00,81.7,74.5,30.06,SSE,156,0.0,3.0,79,0.00,,,0.00,meteohub,2013-06-23 01:02:00,
2013-06-22 21:07:00,81.5,74.3,30.07,East,95,0.0,3.0,79,0.00,,,0.00,meteohub,2013-06-23 01:07:00,
2013-06-22 21:12:00,81.3,74.1,30.07,East,101,1.0,5.0,79,0.00,,,0.00,meteohub,2013-06-23 01:12:00,
2013-06-22 21:17:00,81.3,74.5,30.07,ENE,76,0.0,5.0,80,0.00,,,0.00,meteohub,2013-06-23 01:17:00,
2013-06-22 21:22:00,81.3,74.1,30.07,NNE,13,0.0,5.0,79,0.00,,,0.00,meteohub,2013-06-23 01:22:00,
2013-06-22 21:27:00,81.1,73.9,30.07,NNE,30,1.0,2.0,79,0.00,,,0.00,meteohub,2013-06-23 01:27:00,
2013-06-22 21:33:00,81.1,73.9,30.07,NNE,23,0.0,5.0,79,0.00,,,0.00,meteohub,2013-06-23 01:33:00,
2013-06-22 21:37:00,81.1,74.3,30.08,SE,138,0.0,5.0,80,0.00,,,0.00,meteohub,2013-06-23 01:37:00,
2013-06-22 21:42:00,81.1,74.3,30.08,ESE,113,0.0,5.0,80,0.00,,,0.00,meteohub,2013-06-23 01:42:00,
2013-06-22 21:48:00,81.1,74.3,30.08,ENE,74,0.0,3.0,80,0.00,,,0.00,meteohub,2013-06-23 01:48:00,
2013-06-22 21:53:00,81.1,74.3,30.08,SE,140,1.0,3.0,80,0.00,,,0.00,meteohub,2013-06-23 01:53:00,
2013-06-22 21:58:00,81.0,73.8,30.08,ESE,104,0.0,3.0,79,0.00,,,0.00,meteohub,2013-06-23 01:58:00,
2013-06-22 22:03:00,81.0,73.8,30.08,East,96,0.0,5.0,79,0.00,,,0.00,meteohub,2013-06-23 02:03:00,
2013-06-22 22:08:00,81.0,74.1,30.08,East,87,0.0,5.0,80,0.00,,,0.00,meteohub,2013-06-23 02:08:00,
2013-06-22 22:13:00,81.1,73.9,30.08,NE,55,0.0,5.0,79,0.00,,,0.00,meteohub,2013-06-23 02:13:00,
2013-06-22 22:18:00,81.1,74.3,30.08,ESE,123,0.0,5.0,80,0.00,,,0.00,meteohub,2013-06-23 02:18:00,
2013-06-22 22:23:00,81.1,74.3,30.09,East,92,0.0,5.0,80,0.00,,,0.00,meteohub,2013-06-23 02:23:00,
2013-06-22 22:28:00,81.1,74.7,30.09,SE,132,0.0,6.0,81,0.00,,,0.00,meteohub,2013-06-23 02:28:00,
2013-06-22 22:33:00,81.1,74.7,30.09,SE,134,0.0,6.0,81,0.00,,,0.00,meteohub,2013-06-23 02:33:00,
2013-06-22 22:38:00,81.1,74.7,30.09,East,101,0.0,6.0,81,0.00,,,0.00,meteohub,2013-06-23 02:38:00,
2013-06-22 22:43:00,81.1,74.3,30.09,SSE,154,1.0,8.0,80,0.00,,,0.00,meteohub,2013-06-23 02:43:00,
2013-06-22 22:48:00,81.1,74.7,30.09,SSE,148,4.0,8.0,81,0.00,,,0.00,meteohub,2013-06-23 02:48:00,
2013-06-22 22:53:00,81.3,74.5,30.09,South,191,1.0,8.0,80,0.00,,,0.00,meteohub,2013-06-23 02:53:00,
2013-06-22 22:58:00,81.3,74.5,30.09,SE,126,1.0,6.0,80,0.00,,,0.00,meteohub,2013-06-23 02:58:00,
2013-06-22 23:03:00,81.3,74.5,30.10,SE,134,0.0,6.0,80,0.00,,,0.00,meteohub,2013-06-23 03:03:00,
2013-06-22 23:08:00,81.3,74.1,30.09,SE,124,0.0,7.0,79,0.00,,,0.00,meteohub,2013-06-23 03:08:00,
2013-06-22 23:13:00,81.3,74.1,30.09,South,178,2.0,7.0,79,0.00,,,0.00,meteohub,2013-06-23 03:13:00,
2013-06-22 23:18:00,81.3,73.8,30.10,SE,137,2.0,7.0,78,0.00,,,0.00,meteohub,2013-06-23 03:18:00,
2013-06-22 23:23:00,81.3,74.1,30.10,East,99,0.0,7.0,79,0.00,,,0.00,meteohub,2013-06-23 03:23:00,
2013-06-22 23:28:00,81.3,74.1,30.10,SE,144,3.0,7.0,79,0.00,,,0.00,meteohub,2013-06-23 03:28:00,
2013-06-22 23:33:00,81.3,74.5,30.10,SE,140,3.0,7.0,80,0.00,,,0.00,meteohub,2013-06-23 03:33:00,
2013-06-22 23:38:00,81.5,74.3,30.10,East,86,0.0,6.0,79,0.00,,,0.00,meteohub,2013-06-23 03:38:00,
2013-06-22 23:43:00,81.3,73.8,30.10,ESE,118,0.0,6.0,78,0.00,,,0.00,meteohub,2013-06-23 03:43:00,
2013-06-22 23:48:00,81.3,74.5,30.10,SSE,167,1.0,7.0,80,0.00,,,0.00,meteohub,2013-06-23 03:48:00,
2013-06-22 23:53:00,81.5,75.0,30.10,SSE,168,0.0,7.0,81,0.00,,,0.00,meteohub,2013-06-23 03:53:00,
2013-06-22 23:58:00,81.5,75.0,30.11,SE,142,4.0,7.0,81,0.00,,,0.00,meteohub,2013-06-23 03:58:00,